Showing default

ALICE, 39467

Orbit data source: Space-Track

ALICE, 39467 is a payload satellite owned by AFIT (US) in LEO that was launched on Fri, 06 Dec 2013 UTC via an ATLAS V 501 launch vehicle from the Air Force Western Test Range (AFWTR). Payload-class satellites include a variety of spacecraft equipped with specific instruments for various scientific and technological missions. These include communications satellites like Starlink; space stations such as the ISS; scientific satellites like the Hubble; Earth observation satellites from companies like Planet Labs, Umbra, and HawkEye 360; GPS; miniature CubeSats for education and research; and military/defense satellites.

Loading next visibility...
Identifier
39467, 2013-072F
Orbit
LEO
Country
Flag of USUS
Related business
Manufacturer
AFIT
Mission
Operational Defense Technology
Bus & Motor
CUBESAT 3U, Unknown motor
Mass
4 kg wet, 4 kg dry
Launch date (UTC)
2013-12-06 (12 years ago)
Launch vehicle
ATLAS V 501
Launch site
Air Force Western Test Range (AFWTR)
Object type
Payload
Rocket body
Debris
Shape & HBR
Box + 4 Pan, 0.3 m
Radar Cross Section
0.066 m², Small (<0.1 m²)

Expand to show TLE details & history
Last TLE update: 21 hours ago

TLE from 21 hours ago
0 ALICE
1 39467U 13072F   26094.66834067  .00014798  00000-0  73910-3 0  9995
2 39467 120.4609  20.9739 0156581 275.8828  82.4411 15.07757100104186
Epoch: 2026-04-04T16:02Z
TLE epoch observation values (Epoch: 2026-04-04T16:02:24.633Z)
Latitude
-0.00011°
Longitude
-52.61349°
Altitude
532.014 km
Speed
7.605 km/s
True Right ascension
01h 23m 53s
True Declination
0° 00' 00"
Sunlit
Object was in daylight at epoch
Visualization orbit readout
Latitude
Unknown
Longitude
Unknown
Altitude
Unknown
Speed
Unknown
Apparent Right ascension
Unknown
Apparent Declination
Unknown
Sunlit
N/A
Visualization observer readout
Local Sidereal Time
19:26:41
Azimuth
Unknown
Elevation
Unknown
Doppler factor
Unknown
Orbital elements
Apogee altitude
650.692 km
Perigee altitude
433.969 km
Semi-major axis
6,920.468 km
Eccentricity
0.01566
Inclination
120.4609°
RAAN
20.9739°
Arg. of periapsis
275.8828°
True anomaly
84.2241°
Mean anomaly
82.4411°
Eccentric anomaly
83.33217°
Mean motion
3.76999 °/min
Orbital period
95.49 mins
BSTAR
0.0007391
Loading maneuver chart data...
Computing Atmospheric mass density...
Loading historical data...
Loading historical data...
Loading historical data...
Loading historical data...
Loading historical data...
Loading historical data...
Loading historical data...

Documentation

Showing up to 5 results
|